W4RJG Weather Reports


time (UTC)temp
C
wind
direction
speed
KPH
gust
KPH
rain 1hr
cm
rain 24hr
cm
rain mn
cm
humidity
%
barometer
mb
20260508030005 10 16 0.0 0.0 0.00 0.15 0.13 96 1002.0
20260508025004 10 2 0.0 0.0 0.00 0.15 0.13 96 1002.0
20260508024004 10 5 0.0 0.0 0.00 0.15 0.13 96 1002.0
20260508023004 10 161 0.0 3.2 0.00 0.15 0.13 96 1002.0
20260508022004 15 73 1.6 3.2 0.00 0.15 0.13 93 999.7
20260508021004 15 73 1.6 3.2 0.00 0.15 0.13 93 999.7
20260508020003 15 73 1.6 3.2 0.00 0.15 0.13 93 999.7
20260508014004 15 73 1.6 3.2 0.00 0.15 0.13 93 999.7
20260508013004 15 73 1.6 3.2 0.00 0.15 0.13 93 999.7
20260508012005 15 73 1.6 3.2 0.00 0.15 0.13 93 999.7
20260508011003 15 73 1.6 3.2 0.00 0.15 0.13 93 999.7
20260508010003 15 73 1.6 3.2 0.00 0.15 0.13 93 999.7
20260508004004 15 73 1.6 3.2 0.00 0.15 0.13 93 999.7
20260508003004 15 73 1.6 3.2 0.00 0.15 0.13 93 999.7
20260508002005 15 73 1.6 3.2 0.00 0.15 0.13 93 999.7
20260508001005 15 73 1.6 3.2 0.00 0.15 0.13 93 999.7
20260508000004 15 73 1.6 3.2 0.00 0.15 0.13 93 999.7
20260507235004 15 73 1.6 3.2 0.00 0.15 0.13 93 999.7
20260507234004 15 73 1.6 3.2 0.00 0.15 0.13 93 999.7
20260507233005 15 73 1.6 3.2 0.00 0.15 0.13 93 999.7
20260507232003 15 73 1.6 3.2 0.00 0.15 0.13 93 999.7
20260507231004 15 73 1.6 3.2 0.00 0.15 0.13 93 999.7
20260507230005 15 73 1.6 3.2 0.00 0.15 0.13 93 999.7
20260507225004 15 73 1.6 3.2 0.00 0.15 0.13 93 999.7
20260507224004 15 73 1.6 3.2 0.00 0.15 0.13 93 999.7
20260507223005 15 73 1.6 3.2 0.00 0.15 0.13 93 999.7
20260507221003 15 73 1.6 3.2 0.00 0.15 0.13 93 999.7
20260507220004 15 73 1.6 3.2 0.00 0.15 0.13 93 999.7
20260507215004 15 73 1.6 3.2 0.00 0.15 0.13 93 999.7
20260507213004 15 73 1.6 3.2 0.00 0.15 0.13 93 999.7
20260507212004 15 73 1.6 3.2 0.00 0.15 0.13 93 999.7
20260507211004 15 73 1.6 3.2 0.00 0.15 0.13 93 999.7
20260507210005 15 73 1.6 3.2 0.00 0.15 0.13 93 999.7
20260507205004 15 73 1.6 3.2 0.00 0.15 0.13 93 999.7
20260507204005 15 73 1.6 3.2 0.00 0.15 0.13 93 999.7
20260507203004 15 73 1.6 3.2 0.00 0.15 0.13 93 999.7
20260507202005 15 73 1.6 3.2 0.00 0.15 0.13 93 999.7
20260507201004 15 73 1.6 3.2 0.00 0.15 0.13 93 999.7
20260507200004 15 73 1.6 3.2 0.00 0.15 0.13 93 999.7
20260507195004 15 73 1.6 3.2 0.00 0.15 0.13 93 999.7
20260507194004 15 73 1.6 3.2 0.00 0.15 0.13 93 999.7
20260507193004 15 73 1.6 3.2 0.00 0.15 0.13 93 999.7
20260507192004 15 73 1.6 3.2 0.00 0.15 0.13 93 999.7
20260507191004 15 73 1.6 3.2 0.00 0.15 0.13 93 999.7
20260507184004 15 73 1.6 3.2 0.00 0.15 0.13 93 999.7
20260507182004 15 73 1.6 3.2 0.00 0.15 0.13 93 999.7
20260507181004 15 73 1.6 3.2 0.00 0.15 0.13 93 999.7
20260507174004 15 73 1.6 3.2 0.00 0.15 0.13 93 999.7
20260507172005 15 73 1.6 3.2 0.00 0.18 0.13 93 999.7
20260507171005 15 73 1.6 3.2 0.00 0.18 0.13 93 999.7
20260507170005 15 73 1.6 3.2 0.00 0.18 0.13 93 999.7
20260507165005 15 73 1.6 3.2 0.00 0.18 0.13 93 999.7
20260507164005 15 73 1.6 3.2 0.00 0.18 0.13 93 999.7
20260507163004 15 73 1.6 3.2 0.00 0.18 0.13 93 999.7
20260507161004 15 73 1.6 3.2 0.00 0.18 0.13 93 999.7
20260507160004 15 73 1.6 3.2 0.00 0.18 0.13 93 999.7
20260507155004 15 73 1.6 3.2 0.00 0.18 0.13 93 999.7
20260507154004 15 73 1.6 3.2 0.00 0.20 0.13 93 999.7
20260507152004 15 73 1.6 3.2 0.00 0.20 0.13 93 999.7
20260507145004 15 73 1.6 3.2 0.00 0.33 0.13 93 999.7
20260507144003 15 73 1.6 3.2 0.00 0.36 0.13 93 999.7
20260507143005 15 73 1.6 3.2 0.00 0.36 0.13 93 999.7
20260507142005 15 73 1.6 3.2 0.00 0.36 0.13 93 999.7
20260507140005 15 199 4.8 11.3 0.00 0.36 0.13 92 999.3
20260507135004 17 127 3.2 14.5 0.00 0.36 0.13 94 999.0
20260507134003 18 226 0.0 4.8 0.00 0.36 0.13 95 999.0
20260507133004 18 84 3.2 4.8 0.00 0.36 0.13 95 999.3
20260507131004 18 18 0.0 4.8 0.00 0.36 0.13 96 999.7
20260507130004 18 14 0.0 4.8 0.00 0.36 0.13 95 999.3
20260507125004 18 332 0.0 4.8 0.00 0.36 0.13 96 999.0
20260507124004 18 91 1.6 4.8 0.00 0.36 0.13 96 999.0
20260507123005 17 78 0.0 3.2 0.00 0.36 0.13 95 999.3
20260507122004 17 38 0.0 4.8 0.00 0.36 0.13 96 999.3
20260507120004 17 347 0.0 0.0 0.00 0.36 0.13 95 999.0
20260507115004 17 347 0.0 0.0 0.00 0.36 0.13 96 999.3
20260507114004 17 10 0.0 0.0 0.00 0.36 0.13 95 999.3
20260507113004 17 148 0.0 1.6 0.00 0.36 0.13 96 999.0
20260507105004 17 28 0.0 0.0 0.00 0.36 0.13 95 999.0
20260507104004 17 21 0.0 0.0 0.00 0.36 0.13 95 999.0
20260507103004 17 59 0.0 4.8 0.00 0.36 0.13 95 998.6
20260507102003 17 244 4.8 4.8 0.00 0.36 0.13 95 998.0
20260507101004 17 256 0.0 3.2 0.00 0.36 0.13 95 998.6
20260507100005 17 297 0.0 3.2 0.00 0.36 0.13 95 999.0
20260507095004 17 234 1.6 3.2 0.00 0.36 0.13 95 999.0
20260507094004 17 166 0.0 3.2 0.00 0.36 0.13 95 999.0
20260507093004 18 27 3.2 3.2 0.00 0.36 0.13 95 999.3
20260507092004 18 17 0.0 1.6 0.03 0.36 0.13 95 999.0
20260507091004 18 44 0.0 3.2 0.03 0.36 0.13 95 999.0
20260507090004 18 64 0.0 3.2 0.03 0.36 0.13 95 999.0
20260507085003 18 26 0.0 1.6 0.03 0.36 0.13 95 999.0
20260507084004 18 44 0.0 1.6 0.03 0.36 0.13 95 999.0
20260507083004 18 16 0.0 1.6 0.03 0.36 0.13 95 999.0
20260507082004 18 6 0.0 4.8 0.00 0.33 0.10 95 999.0
20260507081004 18 14 0.0 4.8 0.00 0.33 0.10 95 999.0
20260507075004 18 67 1.6 4.8 0.00 0.33 0.10 95 998.6
20260507074003 18 355 1.6 4.8 0.00 0.33 0.10 95 998.3
20260507073004 18 335 0.0 3.2 0.00 0.33 0.10 95 998.0
20260507072004 18 163 0.0 4.8 0.00 0.33 0.10 95 998.6
20260507071004 18 321 0.0 4.8 0.00 0.33 0.10 95 998.6
20260507070009 18 269 0.0 4.8 0.00 0.33 0.10 95 998.3
20260507065003 18 235 4.8 4.8 0.00 0.33 0.10 95 998.6
20260507064004 18 302 0.0 4.8 0.00 0.33 0.10 95 999.3
20260507063004 18 346 0.0 4.8 0.00 0.33 0.10 95 999.7
20260507062004 18 303 3.2 4.8 0.00 0.33 0.10 95 999.7
20260507061005 18 332 0.0 8.0 0.00 0.33 0.10 95 1000.0
20260507060004 18 336 3.2 9.7 0.00 0.33 0.10 95 1000.0
20260507055004 18 338 4.8 4.8 0.00 0.33 0.10 95 1000.0
20260507051004 18 37 3.2 3.2 0.08 0.33 0.10 95 1000.2
20260507044004 18 45 1.6 4.8 0.13 0.33 0.10 95 1000.3
20260507043004 18 25 1.6 4.8 0.13 0.33 0.10 94 999.6
20260507042004 18 196 1.6 4.8 0.10 0.30 0.08 94 1000.3
20260507041004 18 9 3.2 11.3 0.05 0.25 0.03 94 1001.0
20260507040004 19 11 4.8 11.3 0.03 0.23 0.00 93 1001.4
20260507035004 19 344 4.8 9.7 0.03 0.23 0.23 93 1001.4
20260507034004 19 319 4.8 8.0 0.00 0.20 0.20 93 1001.4
20260507033004 19 317 3.2 4.8 0.00 0.20 0.20 91 1001.0
20260507032004 19 357 0.0 3.2 0.00 0.20 0.20 90 1000.3